Location: ???????
(55.8719°N, 38.1523°E)
Time: 02:35:30
(UTC+00:00)

Cosmos 1151 Rocket - Pass Details

Date: 14 April 2024
Orbit: 589 x 611 km, 82.5° (Epoch: 18 May)

Event Time Altitude Azimuth Distance (km) Brightness Sun altitude
Exits shadow 01:03:59 - 194° (SSW) 2,097 5.3 -10.8°
Reaches altitude 10° 01:04:22 10° 195° (SSW) 1,941 5.2 -10.8°
Maximum altitude 01:08:41 80° 283° (WNW) 620 3.0 -10.3°
Drops below altitude 10° 01:13:03 10° 11° (N) 1,971 6.3 -9.8°
Sets 01:15:17 0° 12° (NNE) 2,883 7.2 -9.5°
